Location: Caltech
(34.1382°N, 118.1253°W)
Time: 18:37:45
(UTC-07:00)

Cosmos 1125 Rocket - Visible Passes

Search period start: 02 June 2015 00:00
Search period end: 12 June 2015 00:00
Orbit: 758 x 781 km, 74.0° (Epoch: 02 June)

Date Brightness Start Highest point End Pass type
(mag) Time Alt. Az. Time Alt. Az. Time Alt. Az.
02 Jun 4.6 01:21:23 41° NNE 01:21:23 41° NNE 01:24:48 10° NNE visible
03 Jun 5.0 00:45:17 30° NE 00:45:17 30° NE 00:48:05 10° NNE visible
03 Jun 5.5 02:25:34 17° WNW 02:25:34 17° WNW 02:28:42 10° NNW visible
04 Jun 5.5 00:09:10 19° ENE 00:09:10 19° ENE 00:11:01 10° NE visible
04 Jun 5.1 01:49:27 27° NW 01:49:27 27° NW 01:53:04 10° N visible
04 Jun 6.0 23:33:02 11° ENE 23:33:02 11° ENE 23:33:16 10° ENE visible
05 Jun 4.7 01:13:19 38° NNW 01:13:19 38° NNW 01:16:56 10° N visible
06 Jun 4.6 00:37:08 41° NNE 00:37:08 41° NNE 00:40:31 10° NNE visible
07 Jun 4.9 00:00:56 31° NE 00:00:56 31° NE 00:03:48 10° NNE visible
07 Jun 5.7 01:41:12 17° WNW 01:41:12 17° WNW 01:44:24 10° NNW visible
07 Jun 5.4 23:24:41 20° ENE 23:24:41 20° ENE 23:26:44 10° NE visible
08 Jun 5.1 01:04:56 27° NW 01:04:56 27° NW 01:08:45 10° N visible
08 Jun 5.8 22:48:24 12° ENE 22:48:24 12° ENE 22:49:01 10° ENE visible
09 Jun 4.6 00:28:40 42° NNW 00:28:40 42° NNW 00:32:39 10° N visible
09 Jun 4.2 23:52:20 50° NNE 23:52:20 50° NNE 23:56:13 10° NNE visible
10 Jun 4.4 23:15:58 38° NE 23:15:58 38° NE 23:19:30 10° NNE visible
11 Jun 5.7 00:56:13 16° WNW 00:56:53 16° WNW 01:00:04 10° NNW visible
11 Jun 4.9 22:39:32 24° ENE 22:39:32 24° ENE 22:42:27 10° NE visible
